Location: Lake of the Woods (North-East)
(49.6672°N, 94.8656°W)
Time: 15:11:30
(UTC-05:00)

Daily predictions for brighter satellites

Satellite Brightness Start Highest point End
(mag) Time Altitude Azimuth Time Altitude Azimuth Time Altitude Azimuth
GENESIS II 4.4 22:05:22 10° SSW 22:09:07 49° SE 22:12:56 10° NE
Cosmos 1340 3.5 22:10:34 10° N 22:14:08 38° ENE 22:17:42 10° SE
APEX 3.8 22:14:15 10° NNW 22:16:59 34° NE 22:20:07 10° ESE
Terra 2.9 22:15:30 10° SE 22:19:44 33° ENE 22:24:00 10° N
Cosmos 1110 Rocket 4.0 22:15:26 10° NNW 22:20:39 88° ENE 22:25:50 10° SSE
In-Cosmos 22 4.3 22:16:05 10° S 22:21:39 90° W 22:27:24 10° NNE
IGS 5A 4.4 22:19:32 10° SE 22:23:21 36° ENE 22:27:10 10° N
BREEZE-M DEB (TANK) 3.6 22:17:57 10° SW 22:25:48 42° SSE 22:28:46 10° E
Cosmos-2242 3.3 22:21:56 10° NNW 22:26:19 70° W 22:30:41 10° S
SPOT 1/Viking Rocket 3.7 22:22:53 10° SSE 22:27:59 68° ENE 22:33:07 10° N
H-2A R/B 2.6 22:23:04 10° S 22:28:19 63° WSW 22:33:43 10° NNW
Cosmos 1300 3.9 22:25:00 10° N 22:28:25 30° ENE 22:31:48 10° SE
Cosmos 1315 Rocket 3.6 22:26:51 10° SSW 22:30:51 58° WNW 22:34:56 10° N
Cosmos 1674 2.7 22:27:08 10° S 22:30:53 63° E 22:34:43 10° NNE
Cosmos 2084 4.4 22:28:22 10° WNW 22:31:51 33° WSW 22:35:20 10° S
Iridium 81 3.9 22:29:27 10° S 22:31:54 61° E 22:34:53 10° N
Cosmos 1331 Rocket 4.1 22:29:47 10° NNW 22:35:00 81° WSW 22:40:14 10° SSE
Cosmos 1842 Rocket 3.7 22:32:26 10° N 22:36:44 59° ENE 22:40:56 11° SSE
USA 238 DEB 4.0 22:30:02 10° NW 22:37:08 72° SW 22:44:13 11° SSE
USA 238 4.0 22:30:09 10° NW 22:37:14 72° SW 22:44:19 11° SSE
Cosmos 1269 Rocket 4.1 22:32:40 10° SSW 22:37:59 88° WNW 22:43:21 10° NNE
ATLAS 3B R/B 2.7 22:31:21 10° NW 22:38:04 86° SW 22:44:26 11° SE
Cosmos 1553 Rocket 4.0 22:35:28 10° S 22:41:27 68° E 22:47:30 10° NNE
DMSP B5D2-2 4.1 22:39:03 10° NNE 22:44:19 72° ESE 22:49:32 10° S
Cosmos 494 Rocket 4.0 22:40:21 10° S 22:45:32 66° ESE 22:50:47 10° NNE
Cosmos 1726 2.2 22:42:29 10° NNW 22:46:16 81° W 22:50:01 10° S
NOSS 3-2 (A) 4.1 22:42:37 10° NW 22:50:02 86° SW 22:57:41 12° SE
Helios 1A 3.1 22:46:02 10° S 22:50:13 77° WSW 22:54:28 10° NNW
Meteor 2-10 4.2 22:45:01 10° NNW 22:50:24 86° WSW 22:55:58 10° S
SPOT 5 3.2 22:48:05 10° S 22:53:10 74° WSW 22:58:30 10° NNW
Cosmos 2278 Rocket 2.9 22:50:22 10° S 22:55:26 35° ESE 23:00:31 10° NE
Helios 1B rocket 2.7 22:51:46 10° NNE 22:55:47 50° E 22:59:36 11° S
Cosmos 1238 Rocket 4.3 22:55:55 10° SW 22:58:28 26° WNW 23:01:10 10° NNW
Cosmos 1386 Rocket 4.5 22:53:51 10° N 23:00:01 79° E 23:05:35 12° SSE
Lacrosse 5 1.9 22:56:10 10° SW 23:01:15 89° NNW 23:06:21 10° ENE
SL-8 R/B 4.1 22:56:45 10° SW 23:01:18 42° SSE 23:05:51 10° E
Cosmos 1302 Rocket 4.1 22:57:02 10° NNW 23:02:22 83° WSW 23:06:56 14° SSE
COSMOS 2406 3.7 22:57:36 10° NW 23:03:15 56° WSW 23:08:28 12° S
Timation 1 Rocket 4.4 22:58:39 10° SSW 23:04:37 89° ESE 23:10:39 10° NNE
SL-14 R/B 3.5 23:02:20 14° S 23:05:36 53° E 23:09:27 10° NNE
ATLAS 2AS CENTAUR R/B 3.1 23:00:20 10° SW 23:08:17 89° SE 23:16:29 10° NE
Cosmos 2251 Rocket 3.7 23:06:26 10° S 23:11:40 58° ESE 23:16:54 10° NNE
ERS-1 Rocket 4.3 23:08:02 10° SSW 23:12:36 34° W 23:17:12 10° NNW
KORONAS-FOTON 4.5 23:09:38 10° SSW 23:13:28 56° WNW 23:17:22 10° N
NOSS 3-2 (C) 4.1 23:07:09 10° NW 23:14:34 83° SW 23:21:38 15° SE
CZ-2C R/B 3.4 23:09:46 14° SSE 23:14:49 83° ENE 23:20:36 10° NNW
Cosmos 2221 2.5 23:11:26 10° N 23:15:48 79° E 23:19:04 17° SSE
Cosmos 1844 Rocket 3.2 23:11:34 10° SW 23:17:12 65° WNW 23:22:51 10° NNE
Cosmos 1844 3.9 23:11:30 10° SSW 23:17:13 81° WNW 23:23:02 10° NNE
Cosmos 1992 Rocket 4.4 23:15:38 10° NNW 23:20:47 56° ENE 23:24:47 16° SE
Meteor 1-29 2.8 23:17:52 10° NNE 23:21:18 72° ESE 23:23:52 16° S
Aureole 3 Rocket 4.3 23:24:05 14° SSE 23:30:22 54° E 23:35:43 10° NNE
Cosmos 1703 4.4 23:31:20 19° SE 23:33:09 28° E 23:36:30 10° NNE
ATLAS 5 CENTAUR R/B 2.5 23:35:22 20° SSE 23:37:44 32° ESE 23:42:07 10° ENE
Cosmos 2082 Rocket 2.3 23:33:24 10° NNW 23:39:10 74° ENE 23:43:22 19° SE
Cosmos 1833 Rocket 2.7 23:38:28 10° NNW 23:44:08 87° ENE 23:48:06 20° SSE
NOSS 2-2 (E) 4.0 23:42:07 21° S 23:44:14 38° ESE 23:48:29 10° NE
Iridium 75 3.7 23:42:55 10° N 23:45:04 63° W 23:45:23 51° SW
NOSS 3-4 (A) 3.5 23:39:16 10° SSW 23:45:19 59° SE 23:51:41 10° NE
NOSS 3-4 (C) 3.5 23:39:22 10° SSW 23:45:24 58° SE 23:51:46 10° NE
CENTAUR R/B 3.2 23:39:12 10° NW 23:47:01 86° NE 23:54:15 16° SE
COBE Rocket 4.3 23:42:05 10° NNE 23:47:02 52° E 23:50:20 21° SSE
ADEOS Rocket 4.2 23:42:31 10° NE 23:47:26 26° E 23:50:52 17° SE
RESURS DK-1 3.5 23:46:16 22° SE 23:47:32 26° ESE 23:51:00 10° NE
Nimbus 7 Rocket 4.4 23:42:07 10° NNE 23:48:09 88° ESE 23:53:50 12° SSW
Cosmos 1461 3.2 23:44:27 10° SSW 23:49:05 65° SE 23:53:50 10° NE
Cosmos 1626 2.1 23:48:44 21° S 23:51:06 89° WSW 23:54:51 10° N
CZ-2C R/B 2.6 23:48:55 10° NNE 23:54:25 81° ESE 23:58:36 17° S
